Lapse_Rate
5.4 5.4 5.4 5.4 5.5 5.5 5.5 5.6 5.6 5.7 5.5 5.6 5.6 5.6 5.6 5.6 5.8 5.9 6.0 6.2 6.2 6.0 5.9 6.0 6.1 6.1 6.1 6.0 6.0 6.0 6.0 5.8 5.7 5.7 5.7 6.1 6.0 6.0 5.9 5.6 5.7 5.8 5.4 6.1 6.1
5.5 5.5 5.5 5.5 5.5 5.5 5.6 5.7 5.8 5.8 5.8 5.7 5.7 5.7 5.6 5.6 5.8 5.9 6.1 6.2 6.2 6.2 6.1 6.1 6.2 6.3 6.3 6.2 6.2 6.0 5.8 5.7 5.4 5.7 5.7 5.9 6.0 6.3 5.4 5.3 5.8 5.9 5.9 6.3 6.2
5.5 5.5 5.5 5.5 5.5 5.5 5.7 5.8 5.9 5.9 5.9 5.8 5.7 5.6 5.7 5.7 5.7 5.8 6.0 6.2 6.3 6.4 6.3 6.3 6.4 6.5 6.0 6.2 6.1 6.3 5.7 5.8 5.7 5.3 5.4 5.4 5.9 6.0 5.2 5.6 5.6 5.9 5.9 6.3 6.1
5.5 5.4 5.4 5.5 5.5 5.5 5.6 5.7 5.8 5.9 5.9 5.9 5.6 5.6 5.7 5.8 5.6 5.8 6.0 6.1 6.3 6.4 6.3 6.6 6.5 6.3 6.3 6.2 6.0 6.2 6.1 5.7 5.3 4.9 5.0 5.4 5.5 5.8 5.4 5.6 5.4 5.9 5.9 6.0 6.1
5.6 5.5 5.5 5.5 5.5 5.5 5.5 5.6 5.7 5.8 5.8 5.8 5.6 5.5 5.6 5.6 5.8 5.9 5.9 6.1 6.3 6.5 6.4 6.7 6.7 6.5 6.3 6.1 5.9 5.9 6.1 5.7 5.4 5.5 5.4 5.5 5.8 5.5 5.3 5.5 5.5 5.8 5.9 5.9 6.0
5.7 5.7 5.6 5.5 5.4 5.4 5.4 5.5 5.6 5.6 5.6 5.6 5.5 5.4 5.4 4.9 5.7 5.9 6.0 6.0 6.2 6.4 6.6 6.8 6.9 6.9 6.2 6.3 6.2 6.2 6.0 5.7 5.5 5.7 5.7 5.7 5.6 5.7 5.6 5.4 5.7 5.8 5.9 6.0 5.9
5.8 5.8 5.7 5.6 5.4 5.3 5.3 5.3 5.3 5.4 5.5 5.4 5.4 5.3 5.3 5.1 5.6 5.8 6.0 6.1 6.2 6.4 6.6 6.8 7.1 6.9 6.4 6.4 6.1 6.1 5.7 5.5 5.2 5.7 5.8 5.7 5.5 5.3 5.7 5.7 5.6 5.8 6.0 5.9 5.8
5.8 5.8 5.7 5.7 5.5 5.5 5.4 5.3 5.2 5.2 5.3 5.4 5.3 5.4 4.9 5.6 5.7 5.9 6.1 6.3 6.2 6.4 6.7 6.7 7.1 7.2 6.4 6.9 6.3 6.4 6.3 6.1 5.7 5.7 5.7 5.7 5.7 5.8 5.8 5.7 5.5 5.9 6.0 6.0 5.9
5.9 6.0 5.8 5.8 5.7 5.7 5.6 5.5 5.3 5.3 5.3 5.4 5.4 5.3 5.1 5.4 5.7 5.8 6.1 6.1 6.3 6.4 6.7 6.8 7.0 6.9 7.0 6.9 7.4 7.0 7.9 7.1 6.1 6.2 5.6 5.7 5.8 5.9 6.0 5.7 5.5 5.8 5.6 6.0 5.8
5.9 6.0 6.0 6.0 5.8 5.8 5.7 5.7 5.6 5.5 5.5 5.4 5.5 5.4 5.2 5.1 5.5 5.6 5.8 6.0 6.2 6.4 6.6 6.8 7.1 7.5 7.2 7.7 8.4 8.5 8.2 7.5 7.2 6.4 6.3 5.8 6.0 6.1 6.1 5.8 5.8 5.5 5.5 5.6 5.9
5.8 5.9 6.0 6.2 6.1 6.0 5.8 5.8 5.7 5.7 5.7 5.5 5.5 5.5 5.2 5.2 5.4 5.4 5.7 5.9 6.2 6.3 6.8 6.9 7.5 8.1 9.2 8.3 7.7 7.7 7.8 7.8 7.2 7.3 6.5 6.2 6.1 6.3 5.9 5.8 6.1 5.9 5.5 5.6 5.9
5.9 6.0 6.0 6.2 6.3 6.1 5.9 5.8 5.8 5.8 5.8 5.8 5.7 5.6 5.5 5.4 5.5 5.4 5.7 5.9 6.2 6.7 6.8 7.1 7.7 8.2 7.8 7.9 7.8 7.9 7.9 7.6 7.0 7.5 6.8 6.7 6.5 6.2 6.4 6.3 6.0 5.9 5.7 5.5 5.8
6.0 6.0 6.1 6.1 6.3 6.2 6.1 6.0 6.0 6.2 6.2 6.0 6.0 5.9 5.8 5.6 5.9 5.8 5.8 6.2 6.6 6.9 7.0 7.6 8.1 7.6 7.9 8.3 8.5 8.8 8.9 8.1 7.9 7.4 7.3 7.2 7.2 7.1 6.8 6.2 5.5 6.0 6.0 5.6 5.5
6.1 6.1 6.1 6.1 6.2 6.3 6.2 6.0 6.2 6.4 6.4 6.4 6.1 6.0 6.0 5.9 6.0 6.0 6.0 6.5 6.7 7.2 7.3 7.6 7.9 7.8 8.4 8.6 9.0 9.5 8.8 8.5 8.1 8.3 7.6 7.8 8.2 7.6 6.9 7.0 6.7 6.0 5.9 6.1 6.0
6.2 6.1 6.2 6.2 6.2 6.3 6.3 6.2 6.3 6.5 7.9 6.7 6.3 6.2 6.2 6.2 6.3 6.2 6.2 6.5 7.2 7.4 7.6 8.4 8.2 8.3 8.5 9.1 9.0 9.3 8.4 8.5 8.6 9.0 8.6 8.4 8.8 8.0 7.8 6.8 6.4 6.7 6.3 6.4 6.7
5.9 6.2 6.1 6.3 6.4 6.5 6.3 6.1 6.3 6.5 7.6 6.9 6.7 6.4 6.3 6.5 6.5 6.5 6.5 6.7 7.1 7.4 7.6 8.0 8.1 8.1 8.5 8.6 8.6 8.5 8.1 8.2 8.6 9.1 9.5 9.0 8.8 8.9 8.3 7.5 7.0 6.9 6.7 6.6 7.1
5.9 6.1 6.2 6.1 6.4 6.5 6.4 6.2 6.4 7.1 7.0 7.1 7.0 6.9 6.9 6.8 6.7 6.7 6.8 7.0 7.7 8.0 8.4 8.4 8.4 8.4 8.5 8.5 8.2 8.3 9.3 9.4 9.5 9.6 9.7 8.9 8.8 9.2 8.0 7.7 7.2 6.7 7.0 7.1 7.1
5.8 6.0 6.2 6.3 6.1 6.4 6.3 5.9 6.8 7.3 7.4 7.1 7.3 7.3 7.3 7.3 7.2 7.1 7.2 7.6 7.7 8.0 9.6 9.6 8.9 8.6 8.5 9.3 9.5 8.7 9.5 9.6 9.4 9.7 9.8 8.6 9.5 9.0 8.0 8.0 7.8 7.4 7.1 7.1 7.0
5.8 6.0 6.2 6.4 6.2 6.3 6.2 6.3 7.1 7.3 7.3 7.4 7.4 7.5 7.5 7.3 7.5 7.5 7.5 7.9 8.3 8.1 9.2 9.6 9.6 8.8 8.8 8.8 9.1 9.0 8.9 9.4 9.7 9.3 9.3 9.6 9.1 8.4 8.0 7.6 7.3 7.2 7.4 7.6 7.5
5.7 5.8 6.0 6.4 6.4 6.1 5.9 6.5 7.0 6.9 7.2 7.2 7.9 7.9 8.1 7.8 7.5 7.8 7.9 8.2 8.2 8.1 8.6 9.5 9.6 9.2 8.8 9.0 8.9 8.9 9.4 9.2 9.5 9.6 9.4 9.7 8.9 9.6 8.4 7.8 7.4 7.3 7.2 7.7 7.5
5.5 5.6 5.9 6.2 6.1 5.9 5.7 6.4 6.6 6.7 7.3 7.1 7.7 7.8 8.0 8.3 8.0 8.2 8.5 8.4 8.4 8.2 8.3 9.3 9.4 9.1 8.9 9.1 9.6 8.8 9.3 9.0 9.4 9.4 9.8 9.8 9.7 8.6 8.2 7.8 7.6 7.2 7.3 7.2 7.2
5.3 5.2 5.8 5.9 5.9 5.5 5.8 5.9 6.1 6.5 7.0 7.0 7.3 7.3 7.6 7.8 8.1 8.4 8.7 9.0 8.5 8.5 8.5 8.9 9.5 9.5 9.5 8.8 8.9 9.0 9.4 9.5 9.5 9.4 9.5 9.2 9.5 8.5 7.9 8.0 7.8 7.6 7.5 7.3 7.2
5.1 5.4 5.6 5.8 5.6 5.6 5.7 6.0 6.0 6.3 6.7 7.0 7.1 7.3 7.3 7.7 8.1 8.3 8.8 8.7 8.8 8.9 8.9 8.8 9.5 9.5 9.3 8.7 8.5 8.7 8.7 9.2 9.5 9.5 9.5 9.6 9.3 8.6 8.4 8.0 7.8 7.8 7.6 7.2 7.1
4.7 4.8 5.3 5.5 5.6 5.4 5.5 5.8 6.1 6.1 6.5 6.7 6.9 7.1 7.2 7.4 7.8 8.2 8.4 8.8 9.0 8.9 8.9 9.0 9.4 9.5 9.7 9.5 9.3 8.9 8.4 8.3 8.8 9.5 9.5 9.4 9.5 8.7 8.0 8.0 7.8 7.8 7.8 7.5 7.2
4.3 4.0 5.0 5.1 4.9 4.9 5.2 5.4 6.0 6.4 6.7 6.5 6.9 7.1 7.5 7.7 7.8 7.9 8.4 8.5 8.9 9.1 9.0 9.1 9.4 9.2 9.2 8.8 8.7 8.7 8.1 7.7 7.9 8.4 8.7 9.5 9.4 8.7 7.6 7.7 7.8 7.7 7.7 7.6 7.3
4.3 4.3 4.4 4.7 4.9 5.1 5.2 5.6 5.8 6.0 6.1 7.0 7.1 7.0 7.4 7.5 7.9 8.3 8.5 8.7 8.6 9.0 8.9 9.0 9.4 8.9 8.9 8.4 8.4 8.3 8.1 7.9 7.7 7.8 7.8 8.1 8.0 7.7 7.9 7.8 7.6 7.5 7.5 7.3 7.2
4.3 4.3 4.1 4.2 4.6 4.9 5.5 5.4 5.6 5.9 6.1 6.3 6.8 6.8 7.1 7.5 7.2 7.6 8.0 8.4 8.8 8.7 8.8 9.0 9.2 8.8 9.5 8.3 8.1 8.0 8.0 7.9 7.8 7.7 7.8 7.9 8.2 7.4 7.5 7.7 7.7 7.3 7.2 7.1 7.0
Wind_Speed
15 15 16 15 14 13 13 13 12 11 11 10 8 9 11 13 17 6 7 3 2 11 6 7 7 5 4 1 3 2 4 4 3 5 7 3 4 2 2 9 7 2 6 18 18
15 16 16 16 15 14 13 13 12 12 10 9 7 7 9 10 8 8 6 5 4 10 8 9 6 4 0 1 2 3 2 1 4 4 4 8 3 4 5 9 8 11 16 19 16
15 16 16 16 17 16 15 13 13 12 10 8 7 7 8 10 6 3 11 9 8 7 3 4 5 4 0 1 2 4 4 3 8 6 10 8 4 0 2 7 6 12 16 17 16
17 17 17 17 17 17 16 15 13 12 10 7 6 7 7 6 4 5 9 9 6 6 5 4 5 5 3 4 3 3 6 5 9 6 7 6 4 5 2 5 6 13 15 14 14
17 17 18 19 18 18 17 16 13 11 9 7 6 5 6 6 6 5 10 9 9 6 6 5 6 4 3 5 7 9 9 10 7 7 7 4 6 2 8 3 6 13 13 13 12
19 19 20 20 20 19 19 17 13 11 9 6 5 5 6 4 2 3 9 8 7 7 5 4 5 3 5 4 6 9 10 12 7 8 3 2 4 3 3 3 9 14 13 11 11
20 20 21 20 21 20 20 18 14 10 8 6 5 4 6 7 1 5 7 8 4 5 5 1 4 5 1 9 10 13 10 9 7 8 2 2 4 2 5 4 10 13 12 10 10
21 22 22 22 22 21 20 17 14 6 6 6 6 5 3 4 5 6 5 6 5 4 2 2 3 2 2 10 6 4 2 3 8 7 8 5 3 6 4 5 10 12 11 10 10
23 23 23 23 22 20 18 14 3 7 5 7 5 5 7 5 7 8 6 7 8 6 2 2 5 1 6 9 9 5 7 4 8 8 6 9 5 9 8 8 10 11 12 11 10
24 24 24 24 23 20 15 5 6 10 5 5 4 6 6 5 9 8 6 8 7 9 5 6 6 8 8 10 5 8 5 3 1 8 9 7 3 8 11 8 11 10 12 11 11
25 26 26 25 21 19 6 4 5 5 8 6 3 3 6 10 9 7 9 8 8 12 10 9 10 11 11 2 4 4 5 4 4 4 6 5 3 8 11 8 8 12 13 13 11
26 26 28 29 27 11 5 4 5 5 6 5 6 5 4 6 10 9 10 10 11 14 6 9 13 7 3 6 8 9 5 8 4 5 6 2 5 5 11 14 14 11 12 14 13
26 26 28 30 25 4 4 2 2 7 6 6 6 7 11 10 9 14 13 5 11 13 14 14 3 4 11 11 10 9 4 2 4 7 6 6 7 7 11 11 14 12 11 14 14
26 25 25 36 5 5 2 3 7 4 5 10 10 7 8 8 6 10 13 7 7 11 10 10 11 8 12 15 11 10 4 3 6 8 3 3 1 7 9 12 13 15 14 18 16
26 24 22 13 9 4 4 5 4 4 5 11 9 7 10 6 15 10 9 7 8 10 9 6 10 13 13 11 3 2 3 5 4 3 5 5 6 7 4 9 13 15 18 19 17
29 24 22 4 4 6 7 7 4 7 5 9 9 12 13 9 8 10 11 9 2 6 10 8 1 5 7 3 6 4 7 6 7 4 10 7 7 7 5 1 2 12 14 16 18
30 28 10 4 3 6 5 4 6 8 5 10 11 12 15 11 10 12 13 14 9 9 11 8 10 6 9 10 7 11 12 8 8 7 2 6 7 8 3 2 1 3 12 16 16
32 31 7 6 6 7 6 7 10 4 9 4 5 11 12 11 10 13 12 13 11 9 6 11 12 14 13 10 6 12 12 10 3 5 1 3 3 6 3 2 2 2 5 9 15
34 4 3 3 3 4 8 12 6 10 4 8 9 11 13 10 6 11 16 15 14 14 8 7 4 6 5 5 8 8 9 5 6 5 7 3 2 6 3 4 4 2 2 4 10
8 6 1 5 5 6 9 16 11 4 3 6 13 12 15 15 12 10 14 14 12 11 13 3 5 7 7 8 4 8 2 7 8 3 5 5 3 3 2 3 1 3 4 5 2
5 5 4 5 4 6 11 17 13 8 6 6 8 6 11 9 15 15 12 7 15 12 10 7 7 10 9 9 7 6 9 7 7 5 7 4 4 6 3 3 4 6 4 5 4
4 4 3 4 5 5 12 10 2 10 9 7 5 6 8 9 13 13 14 9 11 12 13 13 7 9 6 4 3 7 10 6 8 10 6 7 6 7 5 5 3 5 5 6 5
5 4 3 4 6 9 9 10 9 8 11 11 8 7 5 8 7 11 11 4 9 13 11 10 7 6 9 10 7 8 7 11 8 10 10 9 4 7 7 6 3 3 4 3 3
4 3 4 5 3 7 6 11 13 9 14 10 9 9 8 10 8 7 9 6 9 11 5 8 9 10 3 4 5 5 9 11 15 11 9 9 8 10 8 7 7 6 4 2 3
3 1 4 1 6 5 6 2 10 9 10 9 9 14 13 11 11 9 9 7 9 8 8 10 13 8 1 1 5 9 8 11 13 13 10 7 4 9 5 4 7 6 5 4 3
4 4 2 6 5 7 6 9 11 8 4 9 8 4 14 13 11 10 12 11 10 11 12 9 7 8 7 4 6 9 10 9 10 9 9 11 10 7 4 2 7 7 6 6 4
2 3 5 2 5 6 7 8 8 2 5 6 6 6 8 10 7 11 11 10 4 14 14 13 7 9 12 8 6 11 14 13 13 13 11 14 6 5 6 7 8 6 6 5 4
Wind_Direction
351 350 346 346 345 342 337 335 332 330 328 326 319 313 313 317 301 215 234 70 78 156 224 170 208 218 256 152 151 249 231 169 155 201 126 136 126 114 263 137 58 27 113 130 145
349 348 345 344 340 339 337 334 330 328 328 322 311 307 303 319 270 241 104 132 172 176 195 197 202 211 221 320 143 315 307 19 49 115 150 150 128 156 178 146 91 103 108 129 147
348 345 342 339 337 335 334 332 327 326 324 320 308 297 301 299 238 107 128 157 178 213 263 254 252 269 206 285 45 38 26 75 83 109 140 142 132 291 194 157 99 131 136 143 151
346 342 339 335 331 329 328 327 324 320 316 306 292 291 293 245 172 72 139 155 188 235 220 217 232 255 319 71 56 94 47 92 114 105 102 82 135 165 161 73 81 132 141 151 163
344 341 336 332 330 328 325 324 320 311 306 293 282 285 260 208 85 85 134 154 183 217 240 232 266 313 34 100 87 88 93 102 129 139 100 91 40 190 155 101 121 139 145 160 165
341 336 332 330 329 328 326 324 317 303 291 274 260 270 252 190 62 130 170 177 214 225 210 241 349 1 75 65 28 106 112 120 125 126 79 70 348 261 131 138 143 155 154 161 162
339 333 331 328 329 327 326 321 311 292 269 251 240 261 251 63 134 151 177 207 201 244 213 217 333 280 123 104 121 127 124 125 141 148 116 124 332 135 131 176 163 163 160 158 162
336 333 331 330 329 328 325 319 311 272 220 219 224 251 59 111 136 174 174 165 190 193 295 3 281 176 310 122 148 132 172 142 160 165 146 148 202 215 237 195 180 172 163 172 171
335 333 332 331 329 328 323 316 359 138 162 182 229 258 113 140 200 180 202 158 161 178 195 292 229 296 168 201 180 194 71 63 161 196 150 217 125 159 192 215 207 185 182 182 183
335 333 333 333 330 330 322 282 138 157 174 223 264 235 163 133 141 155 173 160 166 160 171 206 215 208 217 236 360 52 50 54 13 174 211 199 185 161 174 187 208 198 204 193 199
334 333 333 333 330 327 288 200 214 177 202 302 48 340 135 120 152 173 170 181 173 193 194 201 224 217 205 298 10 329 344 23 86 142 210 228 244 181 183 196 206 229 207 202 207
335 333 332 332 329 316 261 294 54 11 290 211 247 244 189 181 172 154 177 191 195 197 193 193 230 226 313 288 272 283 306 83 104 163 239 205 240 183 202 201 211 216 225 212 202
332 332 332 330 326 262 311 67 103 323 257 159 181 183 176 198 190 168 199 183 203 210 210 241 131 272 239 243 252 241 307 112 44 172 236 268 216 189 196 212 207 195 238 242 223
330 331 333 326 295 346 203 123 307 252 260 143 186 160 166 207 156 167 207 202 197 217 211 240 243 231 241 238 245 269 71 182 156 222 82 262 106 166 183 197 202 223 212 229 209
327 327 329 329 316 268 57 310 304 232 260 139 135 128 158 209 132 177 187 201 192 173 213 133 201 219 227 228 217 352 153 207 242 265 277 154 266 108 177 217 216 211 201 219 237
324 324 328 199 239 288 302 298 231 231 232 158 148 179 180 185 171 141 192 226 323 233 224 275 110 222 232 197 221 132 160 187 221 272 241 83 296 143 136 338 128 203 211 214 212
321 319 304 292 346 330 301 219 227 241 136 168 182 179 201 174 163 182 189 201 212 195 193 177 190 147 173 134 151 206 207 219 214 200 303 79 268 48 74 181 355 213 216 213 221
321 314 173 272 292 311 239 215 231 257 209 109 192 194 200 181 208 195 196 208 212 258 184 197 168 172 189 249 199 220 264 269 253 263 217 144 259 89 98 161 144 221 249 239 209
318 300 244 160 285 221 218 214 219 227 219 201 174 208 199 197 239 200 214 211 203 208 245 193 150 140 197 188 242 149 226 331 296 205 259 77 144 189 163 202 220 133 161 203 222
320 301 295 319 201 208 219 232 237 251 243 220 224 204 207 194 197 203 182 212 209 209 241 175 153 189 134 170 168 286 68 215 217 259 264 97 278 0 82 88 131 231 107 102 131
274 291 91 80 202 201 217 227 244 234 242 225 233 227 240 198 209 196 192 186 216 180 208 244 258 151 174 211 188 177 213 233 309 329 307 243 118 78 108 111 53 94 128 85 95
297 264 139 294 213 204 228 213 295 245 205 243 272 263 240 201 213 222 227 225 181 180 200 213 250 176 177 101 276 270 286 235 237 190 234 318 319 113 127 139 114 101 86 63 34
299 283 148 258 233 211 198 233 241 235 220 218 234 235 204 221 219 212 216 82 190 197 197 185 238 189 189 175 184 229 201 258 274 291 277 276 96 131 151 167 164 162 123 89 40
285 267 169 212 282 271 226 228 226 219 252 242 253 244 221 228 219 209 216 162 187 222 349 209 242 244 271 61 0 196 229 243 254 250 250 209 278 154 182 191 187 186 166 118 74
236 10 353 212 192 254 246 292 226 210 225 208 219 240 228 235 217 217 210 167 188 155 199 233 229 231 277 344 274 280 247 228 237 259 287 316 265 261 101 221 188 167 174 170 153
302 319 262 281 261 251 190 226 245 217 259 200 237 217 229 237 238 217 213 209 184 188 194 217 209 219 211 209 238 248 237 238 236 251 249 266 263 57 91 143 172 191 176 177 159
11 264 279 238 252 248 241 237 229 229 242 296 313 288 232 247 298 286 292 298 250 193 194 199 178 210 240 189 216 241 237 239 253 254 259 257 268 128 147 171 170 174 185 187 165